Regional Weather Roundup
Issued by NWS Sterling, VA

Home | Current Version | Previous Version | Text Only | Print | Product List | Glossary Off
Versions: 1 2 3 4 5 6 7 8 9 10 11 12 13 14 15 16 17 18 19 20 21 22 23 24 25 26 27 28

000
ASUS41 KLWX 282310
RWRLWX

REGIONAL WEATHER ROUNDUP
NATIONAL WEATHER SERVICE BALTIMORE MD/WASHINGTON DC
600 PM EST TUE FEB 28 2017

Note: "FAIR" indicates few or no clouds below 12,000 feet
with no significant weather and/or obstructions to visibility.
 TC=TEMPERATURE CELSIUS

 * =Non NWS site. Station does not report precipitation (e.g. rain,
    snow, etc.), thunder, or fog.

DCZ001-MDZ009-015-VAZ040>042-051-053>054-010000-
WASHINGTON METRO

CITY           SKY/WX    TMP DP  RH WIND       PRES   REMARKS
WASHINGTON NAT LGT RAIN  65  53  65 W5        30.16R
DULLES         LGT RAIN  56  51  84 W3        30.15F
ANDREWS AFB    RAIN      62  52  70 CALM      30.15R
FT BELVOIR     LGT RAIN  61  55  82 CALM      30.16R
QUANTICO       LGT RAIN  60  57  89 NW7       30.18R
COLLEGE PARK*  CLOUDY    59  52  77 CALM      30.15S
LEESBURG*      LGT RAIN  55  54  94 MISG      30.15S
MANASSAS*      RAIN      56  53  90 S8        30.15F
GAITHERSBURG*  CLOUDY    57  48  72 CALM      30.18F

$$

MDZ006>007-011-014-010000-
BALTIMORE METRO

CITY           SKY/WX    TMP DP  RH WIND       PRES   REMARKS
BWI AIRPORT    LGT RAIN  59  53  80 CALM      30.15R
MD SCIENCE CTR   N/A     60  49  66 MISG      30.15R
MARTIN STATE   CLOUDY    59  54  82 CALM      30.16R
ANNAPOLIS      CLOUDY    56  51  84 CALM      30.15R
FORT MEADE*    CLOUDY    55  52  88 SE5       30.17S

$$

MDZ012-015-019>023-010000-
MARYLAND EASTERN SHORE

CITY           SKY/WX    TMP DP  RH WIND       PRES   REMARKS
OCEAN CITY     MOCLDY    52  48  86 SW6       30.16S
SALISBURY      CLOUDY    61  54  77 SE7       30.13F
BAY BRIDGE AP* CLOUDY    50  48  93 W3        30.16R
CAMBRIDGE*     CLOUDY    63  55  77 CALM      30.14S
EASTON*        CLOUDY   N/A N/A N/A S5        30.18S

$$

MDZ017>025-010000-
SOUTHERN MARYLAND

CITY           SKY/WX    TMP DP  RH WIND       PRES   REMARKS
PATUXENT RIVER CLOUDY    52  50  93 E3        30.12S
ST INIGOES     MOCLDY    63  54  72 SE7       30.11S
LEONARDTOWN*   MOCLDY    61  52  72 CALM      30.15R

$$

MDZ003>005-010000-
NORTH CENTRAL MARYLAND

CITY           SKY/WX    TMP DP  RH WIND       PRES   REMARKS
FREDERICK*     CLOUDY    54  54 100 S3        30.14F
HAGERSTOWN APT CLOUDY    54  48  80 SW9       30.09F
WESTMINSTER*   RAIN      55  52  88 S13       30.11F

$$

MDZ501>502-010000-
WESTERN MARYLAND

CITY           SKY/WX    TMP DP  RH WIND       PRES   REMARKS
OAKLAND*       CLOUDY    46  45  93 S17G23    30.05F
CUMBERLAND*    CLOUDY    46  45  93 CALM      30.13F

$$

VAZ025>031-010000-
SHENANDOAH VALLEY

CITY           SKY/WX    TMP DP  RH WIND       PRES   REMARKS
WINCHESTER*    DRIZZLE   50  45  81 S9        30.11F
FRONT ROYAL*   CLOUDY    52  48  87 S3        30.12F
LURAY*         RAIN      50  50 100 SW6       30.15F
NEW MARKET*    CLOUDY    51  48  91 W3        30.13F
STAUNTON*      LGT RAIN  51  49  95 S5        30.19F
WAYNESBORO*    CLOUDY    51  50  95 SE5       30.17F

$$

WVZ021-048>050-054>055-010000-
EASTERN WEST VIRGINIA PANHANDLE

CITY           SKY/WX    TMP DP  RH WIND       PRES   REMARKS
MARTINSBURG    CLOUDY    52  48  86 S5        30.10F
PETERSBURG*    RAIN      53  49  87 S13G18    30.10F

$$

VAZ036>039-050-010000-
CENTRAL FOOTHILLS

CITY           SKY/WX    TMP DP  RH WIND       PRES   REMARKS
CHARLOTTESVILL LGT RAIN  56  53  90 CALM      30.15F FOG
CULPEPER*      RAIN      55  55  97 CALM      30.17F
ORANGE*        RAIN      55  52  88 CALM      30.17F
GORDONSVILLE*  CLOUDY    58  55  90 SW3       30.15F
WARRENTON*     RAIN      55  52  87 CALM      30.15F

$$

VAZ055>057-010000-
NORTH AND CENTRAL PIEDMONT

CITY           SKY/WX    TMP DP  RH WIND       PRES   REMARKS
FREDERICKSBRG* RAIN      61  57  88 NW12G20   30.16R
STAFFORD*      RAIN      58  56  93 NW7       30.21R

$$

NCZ024-NYZ072-PAZ021-071-VAZ022-071-010000-
OTHER REGIONAL OBSERVATIONS

CITY           SKY/WX    TMP DP  RH WIND       PRES   REMARKS
NEW YORK CITY  CLOUDY    52  50  93 MISG      30.19R
PHILADELPHIA   LGT RAIN  61  52  72 S8        30.16R
PITTSBURGH     CLOUDY    56  49  77 S10       29.96F
ROANOKE        LGT RAIN  56  54  93 N6        30.20S FOG
RICHMOND       CLOUDY    68  56  65 SW6       30.11S
RALEIGH        CLOUDY    73  56  54 S9        30.15F

$$

ANZ530>537-010000-
MARINE OBSERVATIONS

STATION/POSITION TIME  TEMP    WIND        PRES
                       AIR SEA DIR/SP/G
                 (UTC) (F)     (DEG/KT/KT) (MB)
THOMAS PT LIGHT  2300   54 45  230/  5/  6   N/A
BALT KEY BRIDGE  2248   59     200/  2/  2 1021.0R
COVE POINT       2248   54     180/  4/  5 1020.8S
LEWISETTA        2248   64 50  180/  5/  6 1019.5S
SOLOMONS ISLAND  2248   55 46   80/  4/  5   N/A
PINEY POINT      2248          140/  7/  8   N/A

$$





USA.gov is the U.S. government's official web portal to all federal, state and local government web resources and services.